CZ-6A DEB, 56683

Orbit data source: Space-Track

CZ-6A DEB, 56683 is space debris in SSO originally from a launch on Fri, 11 Nov 2022 UTC launched from the Taiyaun Space Center, China (TSC). Debris objects in space refer to the collection of defunct objects orbiting the Earth. Examples of debris include non-operational satellites, rocket bodies, and fragments generated from explosions, collisions, or faulty payload assembly.

Loading next visibility...
Identifier
56683, 2022-151AHK
Orbit
SSO
Country
Flag of CNCN / PRC
Related business
Manufacturer
SAST
Mission
Spacecraft
Bus & Motor
Unknown
Mass
Unknown
Launch date (UTC)
2022-11-11 (4 years ago)
Launch vehicle
Unknown
Launch site
Taiyaun Space Center, China (TSC)
Object type
Payload
Rocket body
Debris
Shape & HBR
Unknown shape, 0.1 m
Radar Cross Section
Small (<0.1 m²)

Expand to show TLE details & history
Last TLE update: 15 hours ago

TLE from 15 hours ago
0 CZ-6A DEB
1 56683U 22151AHK 26264.23355268  .00000051  00000-0  53078-4 0  9996
2 56683  98.8462 261.8930 0045019  52.2361 308.2875 14.09915444173492
Epoch: 2026-09-21T05:36Z
TLE epoch observation values (Epoch: 2026-09-21T05:36:18.951Z)
Latitude
-0°
Longitude
177.69772°
Altitude
842.455 km
Speed
7.442 km/s
True Right ascension
17h 27m 34s
True Declination
0° 00' 00"
Sunlit
Object was in daylight at epoch
Visualization orbit readout
Latitude
Unknown
Longitude
Unknown
Altitude
Unknown
Speed
Unknown
Apparent Right ascension
Unknown
Apparent Declination
Unknown
Sunlit
N/A
Visualization observer readout
Local Sidereal Time
13:49:57
Azimuth
Unknown
Elevation
Unknown
Doppler factor
Unknown
Orbital elements
Apogee altitude
889.411 km
Perigee altitude
824.269 km
Semi-major axis
7,234.977 km
Eccentricity
0.0045
Inclination
98.8462°
RAAN
261.893°
Arg. of periapsis
52.2361°
True anomaly
307.88117°
Mean anomaly
308.2875°
Eccentric anomaly
308.08447°
Mean motion
3.52685 °/min
Orbital period
102.07 mins
BSTAR
0.000053078
Loading maneuver chart data...
Computing Atmospheric mass density...
Loading historical data...
Loading historical data...
Loading historical data...
Loading historical data...
Loading historical data...
Loading historical data...
Loading historical data...

Documentation

Showing up to 5 results
|